,,Stat6,,Stat2,,Stat8,,Stat9,,Stat10,,Wind1,,Wind1,
time,status,PA1M_AVG,status,PR1M_SUM,status,RH1M_AVG,status,SR1M_AVG,status,TA1M_AVG,status,W1dAve1m,status,W1sAve1m,
2007-12-16, 07:00:02,VALID,915.618,VALID,0,VALID,100,VALID,34.4711,VALID,18.1048,VALID,131,VALID,1.46662,
2007-12-16, 07:01:00,VALID,915.614,VALID,0,VALID,100,VALID,34.7428,VALID,18.1344,VALID,130,VALID,1.29459,
2007-12-16, 07:02:00,VALID,915.606,VALID,0,VALID,100,VALID,40.0408,VALID,18.1571,VALID,100,VALID,0.822917,
2007-12-16, 07:03:00,VALID,915.614,VALID,0,VALID,100,VALID,50.0765,VALID,18.1601,VALID,113,VALID,0.9016,
2007-12-16, 07:04:00,VALID,915.615,VALID,0,VALID,100,VALID,51.401,VALID,18.1599,VALID,125,VALID,0.733842,
2007-12-16, 07:05:00,VALID,915.611,VALID,0,VALID,100,VALID,52.9632,VALID,18.1733,VALID,125,VALID,0.705382,
2007-12-16, 07:06:00,VALID,915.628,VALID,0,VALID,100,VALID,50.9255,VALID,18.196,VALID,115,VALID,0.976372,
2007-12-16, 07:07:00,VALID,915.638,VALID,0,VALID,100,VALID,46.5614,VALID,18.2153,VALID,131,VALID,0.245384,
2007-12-16, 07:08:00,VALID,915.665,VALID,0,VALID,100,VALID,49.6689,VALID,18.2412,VALID,136,VALID,0.968178,
2007-12-16, 07:09:00,VALID,915.676,VALID,0,VALID,100,VALID,59.6027,VALID,18.2609,VALID,136,VALID,1.244,
2007-12-16, 07:10:00,VALID,915.684,VALID,0,VALID,100,VALID,59.7386,VALID,18.2866,VALID,139,VALID,1.29632,
2007-12-16, 07:11:00,VALID,915.696,VALID,0,VALID,100,VALID,61.2329,VALID,18.3188,VALID,141,VALID,1.25457,
2007-12-16, 07:12:00,VALID,915.702,VALID,0,VALID,100,VALID,56.7839,VALID,18.3582,VALID,142,VALID,1.14881,
2007-12-16, 07:13:00,VALID,915.702,VALID,0,VALID,100,VALID,57.6669,VALID,18.4031,VALID,148,VALID,0.808594,
2007-12-16, 07:14:00,VALID,915.703,VALID,0,VALID,100,VALID,62.1838,VALID,18.439,VALID,139,VALID,0.999809,
2007-12-16, 07:15:00,VALID,915.717,VALID,0,VALID,100,VALID,62.7951,VALID,18.4749,VALID,139,VALID,1.14323,
2007-12-16, 07:16:00,VALID,915.717,VALID,0,VALID,100,VALID,65.8856,VALID,18.5171,VALID,136,VALID,1.15566,
2007-12-16, 07:17:00,VALID,915.721,VALID,0,VALID,100,VALID,70.2667,VALID,18.5555,VALID,144,VALID,0.697409,
2007-12-16, 07:18:00,VALID,915.731,VALID,0,VALID,100,VALID,73.4081,VALID,18.5884,VALID,149,VALID,1.14595,
2007-12-16, 07:19:00,VALID,915.725,VALID,0,VALID,100,VALID,91.9342,VALID,18.5982,VALID,147,VALID,1.32758,
2007-12-16, 07:20:00,VALID,915.719,VALID,0,VALID,100,VALID,103.6,VALID,18.6111,VALID,135,VALID,1.02846,
2007-12-16, 07:21:00,VALID,915.711,VALID,0,VALID,100,VALID,106.096,VALID,18.6368,VALID,131,VALID,1.28468,
2007-12-16, 07:22:00,VALID,915.725,VALID,0,VALID,100,VALID,108.44,VALID,18.6695,VALID,133,VALID,0.782924,
2007-12-16, 07:23:00,VALID,915.735,VALID,0,VALID,100,VALID,110.783,VALID,18.7117,VALID,127,VALID,0.667436,
2007-12-16, 07:24:00,VALID,915.748,VALID,0,VALID,100,VALID,113.432,VALID,18.7376,VALID,136,VALID,0.864169,
2007-12-16, 07:25:00,VALID,915.768,VALID,0,VALID,100,VALID,115.707,VALID,18.7823,VALID,152,VALID,0.555432,
2007-12-16, 07:26:00,VALID,915.783,VALID,0,VALID,100,VALID,117.355,VALID,18.8509,VALID,150,VALID,0.868253,
2007-12-16, 07:27:00,VALID,915.802,VALID,0,VALID,100,VALID,118.866,VALID,18.8963,VALID,147,VALID,0.974254,
2007-12-16, 07:28:00,VALID,915.827,VALID,0,VALID,100,VALID,120.343,VALID,18.9246,VALID,146,VALID,1.07267,
2007-12-16, 07:29:00,VALID,915.838,VALID,0,VALID,100,VALID,122.007,VALID,18.9535,VALID,138,VALID,0.967731,
2007-12-16, 07:30:00,VALID,915.872,VALID,0,VALID,100,VALID,123.858,VALID,18.9665,VALID,141,VALID,1.20865,
2007-12-16, 07:31:00,VALID,915.893,VALID,0,VALID,100,VALID,126.134,VALID,19.0024,VALID,140,VALID,1.44327,
2007-12-16, 07:32:00,VALID,915.921,VALID,0,VALID,100,VALID,114.179,VALID,19.0381,VALID,138,VALID,1.41915,
2007-12-16, 07:33:00,VALID,915.96,VALID,0,VALID,100,VALID,113.873,VALID,19.0645,VALID,132,VALID,1.39549,
2007-12-16, 07:34:00,VALID,915.972,VALID,0,VALID,100,VALID,114.909,VALID,19.0837,VALID,133,VALID,1.47834,
2007-12-16, 07:35:00,VALID,916.013,VALID,0,VALID,99.9273,VALID,115.572,VALID,19.09,VALID,138,VALID,1.58114,
2007-12-16, 07:36:00,VALID,916.021,VALID,0,VALID,99.8095,VALID,119.545,VALID,19.1159,VALID,140,VALID,1.66751,
2007-12-16, 07:37:00,VALID,916.045,VALID,0,VALID,99.718,VALID,118.339,VALID,19.1551,VALID,140,VALID,1.44716,
2007-12-16, 07:38:00,VALID,916.065,VALID,0,VALID,99.5298,VALID,116.505,VALID,19.1773,VALID,131,VALID,1.67207,
2007-12-16, 07:39:00,VALID,916.067,VALID,0,VALID,99.5285,VALID,117.762,VALID,19.217,VALID,142,VALID,1.54331,
2007-12-16, 07:40:00,VALID,916.085,VALID,0,VALID,99.4547,VALID,118.73,VALID,19.2434,VALID,130,VALID,1.2669,
2007-12-16, 07:41:00,VALID,916.078,VALID,0,VALID,99.3784,VALID,122.177,VALID,19.2813,VALID,133,VALID,1.41425,
2007-12-16, 07:42:00,VALID,916.075,VALID,0,VALID,99.1788,VALID,129.377,VALID,19.3023,VALID,137,VALID,1.36973,
2007-12-16, 07:43:00,VALID,916.072,VALID,0,VALID,99.6556,VALID,126.354,VALID,19.3936,VALID,163,VALID,0.995245,
2007-12-16, 07:44:00,VALID,916.052,VALID,0,VALID,99.6315,VALID,130.786,VALID,19.5041,VALID,151,VALID,1.10265,
2007-12-16, 07:45:00,VALID,916.041,VALID,0,VALID,99.0605,VALID,142.35,VALID,19.5229,VALID,161,VALID,1.27214,
2007-12-16, 07:46:00,VALID,916.031,VALID,0,VALID,98.8507,VALID,186.263,VALID,19.5456,VALID,164,VALID,1.1503,
2007-12-16, 07:47:00,VALID,916.019,VALID,0,VALID,98.9245,VALID,189.2,VALID,19.5972,VALID,158,VALID,0.936228,
2007-12-16, 07:48:00,VALID,916.045,VALID,0,VALID,98.9817,VALID,192.308,VALID,19.6724,VALID,162,VALID,0.529652,
2007-12-16, 07:49:00,VALID,916.044,VALID,0,VALID,98.9753,VALID,195.534,VALID,19.7764,VALID,163,VALID,0.560404,
2007-12-16, 07:50:00,VALID,916.053,VALID,0,VALID,98.7388,VALID,199.049,VALID,19.8608,VALID,148,VALID,0.630952,
2007-12-16, 07:51:00,VALID,916.065,VALID,0,VALID,98.5786,VALID,200.679,VALID,19.9359,VALID,149,VALID,0.535065,
2007-12-16, 07:52:00,VALID,916.077,VALID,0,VALID,98.2569,VALID,202.327,VALID,19.9968,VALID,157,VALID,0.663318,
2007-12-16, 07:53:00,VALID,916.096,VALID,0,VALID,97.3528,VALID,203.396,VALID,20.0235,VALID,151,VALID,1.26926,
2007-12-16, 07:54:00,VALID,916.113,VALID,0,VALID,97.3362,VALID,202.072,VALID,20.046,VALID,156,VALID,0.988372,
2007-12-16, 07:55:00,VALID,916.137,VALID,0,VALID,97.2154,VALID,182.001,VALID,20.1228,VALID,165,VALID,1.00191,
2007-12-16, 07:56:00,VALID,916.152,VALID,0,VALID,96.9408,VALID,168.076,VALID,20.1893,VALID,172,VALID,0.928013,
2007-12-16, 07:57:00,VALID,916.162,VALID,0,VALID,96.3062,VALID,168.789,VALID,20.1882,VALID,158,VALID,1.28729,
2007-12-16, 07:58:00,VALID,916.2,VALID,0,VALID,95.9311,VALID,168.569,VALID,20.1658,VALID,154,VALID,1.29119,
2007-12-16, 07:59:00,VALID,916.225,VALID,0,VALID,95.9515,VALID,167.227,VALID,20.1923,VALID,161,VALID,1.19624,
2007-12-16, 08:00:00,VALID,916.245,VALID,0,VALID,95.6946,VALID,164.578,VALID,20.1758,VALID,156,VALID,1.42262,
2007-12-16, 08:01:00,VALID,916.277,VALID,0,VALID,95.8408,VALID,160.214,VALID,20.173,VALID,159,VALID,1.26581,
2007-12-16, 08:02:00,VALID,916.31,VALID,0,VALID,95.8612,VALID,153.354,VALID,20.1825,VALID,150,VALID,0.876635,
2007-12-16, 08:03:00,VALID,916.321,VALID,0,VALID,95.7684,VALID,147.19,VALID,20.1795,VALID,149,VALID,1.14335,
2007-12-16, 08:04:00,VALID,916.35,VALID,0,VALID,95.7582,VALID,141.688,VALID,20.1893,VALID,152,VALID,1.19219,
2007-12-16, 08:05:00,VALID,916.373,VALID,0,VALID,95.5229,VALID,137.137,VALID,20.186,VALID,156,VALID,1.09756,
2007-12-16, 08:06:00,VALID,916.391,VALID,0,VALID,95.5598,VALID,133.758,VALID,20.1795,VALID,142,VALID,0.965701,
2007-12-16, 08:07:00,VALID,916.38,VALID,0,VALID,95.514,VALID,134.318,VALID,20.1923,VALID,153,VALID,1.0338,
2007-12-16, 08:08:00,VALID,916.384,VALID,0,VALID,95.5344,VALID,131.296,VALID,20.193,VALID,155,VALID,1.11142,
2007-12-16, 08:09:00,VALID,916.391,VALID,0,VALID,95.3119,VALID,129.564,VALID,20.1765,VALID,147,VALID,0.960747,
2007-12-16, 08:10:00,VALID,916.396,VALID,0,VALID,95.5433,VALID,126.881,VALID,20.173,VALID,141,VALID,0.781977,
2007-12-16, 08:11:00,VALID,916.419,VALID,0,VALID,95.6374,VALID,131.194,VALID,20.2212,VALID,151,VALID,0.704861,
2007-12-16, 08:12:00,VALID,916.419,VALID,0,VALID,95.514,VALID,130.939,VALID,20.2544,VALID,137,VALID,0.925327,
2007-12-16, 08:13:00,VALID,916.432,VALID,0,VALID,95.2979,VALID,122.279,VALID,20.2964,VALID,138,VALID,0.939317,
2007-12-16, 08:14:00,VALID,916.453,VALID,0,VALID,95.0283,VALID,132.688,VALID,20.3126,VALID,145,VALID,1.0087,
2007-12-16, 08:15:00,VALID,916.457,VALID,0,VALID,94.2717,VALID,133.962,VALID,20.2834,VALID,137,VALID,1.1234,
2007-12-16, 08:16:00,VALID,916.472,VALID,0,VALID,93.8838,VALID,135.456,VALID,20.2612,VALID,132,VALID,1.27876,
2007-12-16, 08:17:00,VALID,916.477,VALID,0,VALID,94.0275,VALID,137.103,VALID,20.2742,VALID,129,VALID,1.19178,
2007-12-16, 08:18:00,VALID,916.456,VALID,0,VALID,93.5151,VALID,138.818,VALID,20.2707,VALID,134,VALID,1.35175,
2007-12-16, 08:19:00,VALID,916.476,VALID,0,VALID,93.3994,VALID,140.771,VALID,20.2639,VALID,134,VALID,1.28345,
2007-12-16, 08:20:00,VALID,916.485,VALID,0,VALID,93.1946,VALID,142.673,VALID,20.2769,VALID,145,VALID,1.13761,
2007-12-16, 08:21:00,VALID,916.485,VALID,0,VALID,93.0115,VALID,144.762,VALID,20.3163,VALID,146,VALID,0.820126,
2007-12-16, 08:22:00,VALID,916.486,VALID,0,VALID,93.1781,VALID,146.986,VALID,20.3977,VALID,136,VALID,0.667111,
2007-12-16, 08:23:00,VALID,916.485,VALID,0,VALID,93.0471,VALID,149.211,VALID,20.4716,VALID,160,VALID,0.754764,
2007-12-16, 08:24:00,VALID,916.485,VALID,0,VALID,92.5054,VALID,151.927,VALID,20.553,VALID,162,VALID,0.704241,
2007-12-16, 08:25:00,VALID,916.487,VALID,0,VALID,92.2689,VALID,155.256,VALID,20.6182,VALID,155,VALID,0.610709,
2007-12-16, 08:26:00,VALID,916.493,VALID,0,VALID,92.2625,VALID,159.416,VALID,20.6996,VALID,133,VALID,0.736471,
2007-12-16, 08:27:00,VALID,916.512,VALID,0,VALID,91.7374,VALID,164.273,VALID,20.7504,VALID,131,VALID,0.888867,
2007-12-16, 08:28:00,VALID,916.512,VALID,0,VALID,92.2981,VALID,169.639,VALID,20.8278,VALID,123,VALID,0.609375,
2007-12-16, 08:29:00,VALID,916.516,VALID,0,VALID,92.4151,VALID,175.106,VALID,20.906,VALID,119,VALID,0.668576,
2007-12-16, 08:30:00,VALID,916.541,VALID,0,VALID,92.0489,VALID,180.574,VALID,20.9517,VALID,117,VALID,0.674479,
2007-12-16, 08:31:00,VALID,916.546,VALID,0,VALID,91.7145,VALID,185.21,VALID,21.0033,VALID,125,VALID,0.817649,
2007-12-16, 08:32:00,VALID,916.562,VALID,0,VALID,92.1519,VALID,189.234,VALID,21.0848,VALID,138,VALID,0.713299,
2007-12-16, 08:33:00,VALID,916.564,VALID,0,VALID,92.1036,VALID,193.225,VALID,21.1583,VALID,120,VALID,0.636039,
2007-12-16, 08:34:00,VALID,916.588,VALID,0,VALID,91.5479,VALID,197.351,VALID,21.1978,VALID,110,VALID,0.975291,
2007-12-16, 08:35:00,VALID,916.581,VALID,0,VALID,91.6674,VALID,201.579,VALID,21.2203,VALID,127,VALID,0.914595,
2007-12-16, 08:36:00,VALID,916.597,VALID,0,VALID,91.169,VALID,206.028,VALID,21.2527,VALID,122,VALID,0.895167,
2007-12-16, 08:37:00,VALID,916.579,VALID,0,VALID,90.9719,VALID,210.698,VALID,21.2665,VALID,130,VALID,1.03145,
2007-12-16, 08:38:00,VALID,916.581,VALID,0,VALID,90.7125,VALID,215.334,VALID,21.269,VALID,125,VALID,0.803571,
2007-12-16, 08:39:00,VALID,916.584,VALID,0,VALID,89.6672,VALID,219.579,VALID,21.246,VALID,130,VALID,1.10247,
2007-12-16, 08:40:00,VALID,916.586,VALID,0,VALID,89.0492,VALID,223.587,VALID,21.2073,VALID,124,VALID,0.98097,
2007-12-16, 08:41:00,VALID,916.589,VALID,0,VALID,90.2458,VALID,227.119,VALID,21.2914,VALID,146,VALID,0.478051,
2007-12-16, 08:42:00,VALID,916.604,VALID,0,VALID,90.5293,VALID,230.209,VALID,21.4161,VALID,166,VALID,0.280134,
2007-12-16, 08:43:00,VALID,916.613,VALID,0,VALID,90.4543,VALID,233.435,VALID,21.5097,VALID,155,VALID,0.411932,
2007-12-16, 08:44:00,VALID,916.627,VALID,0,VALID,90.1046,VALID,237.052,VALID,21.5841,VALID,153,VALID,0.763672,
2007-12-16, 08:45:00,VALID,916.66,VALID,0,VALID,89.5693,VALID,241.196,VALID,21.6036,VALID,162,VALID,0.784979,
2007-12-16, 08:46:00,VALID,916.677,VALID,0,VALID,89.1458,VALID,245.407,VALID,21.6363,VALID,164,VALID,0.788872,
2007-12-16, 08:47:00,VALID,916.679,VALID,0,VALID,88.9068,VALID,249.737,VALID,21.6593,VALID,167,VALID,0.892933,
2007-12-16, 08:48:00,VALID,916.693,VALID,0,VALID,88.9258,VALID,254.067,VALID,21.6977,VALID,168,VALID,0.452592,
2007-12-16, 08:49:00,VALID,916.715,VALID,0,VALID,89.5464,VALID,258.924,VALID,21.7886,VALID,141,VALID,0.394444,
2007-12-16, 08:50:00,VALID,916.723,VALID,0,VALID,89.1687,VALID,263.424,VALID,21.8768,VALID,166,VALID,0.300967,
2007-12-16, 08:51:00,VALID,916.734,VALID,0,VALID,89.0517,VALID,269.146,VALID,22.0005,VALID,110,VALID,0.446646,
2007-12-16, 08:52:00,VALID,916.751,VALID,0,VALID,88.3892,VALID,275.888,VALID,22.0719,VALID,143,VALID,0.57298,
2007-12-16, 08:53:00,VALID,916.754,VALID,0,VALID,88.2621,VALID,281.135,VALID,22.1177,VALID,130,VALID,1.02562,
2007-12-16, 08:54:00,VALID,916.745,VALID,0,VALID,88.8152,VALID,285.397,VALID,22.1239,VALID,100,VALID,0.685138,
2007-12-16, 08:55:00,VALID,916.766,VALID,0,VALID,89.1687,VALID,289.506,VALID,22.1596,VALID,92,VALID,0.783067,
2007-12-16, 08:56:00,VALID,916.777,VALID,0,VALID,89.2527,VALID,292.682,VALID,22.1823,VALID,81,VALID,0.395712,
2007-12-16, 08:57:00,VALID,916.771,VALID,0,VALID,88.3613,VALID,296.332,VALID,22.2564,VALID,85,VALID,0.730114,
2007-12-16, 08:58:00,VALID,916.779,VALID,0,VALID,86.7336,VALID,302.7,VALID,22.237,VALID,81,VALID,0.989984,
2007-12-16, 08:59:00,VALID,916.788,VALID,0,VALID,86.1868,VALID,313.806,VALID,22.2334,VALID,106,VALID,0.753049,
2007-12-16, 09:00:00,VALID,916.794,VALID,0,VALID,86.7018,VALID,307.727,VALID,22.2951,VALID,103,VALID,0.389824,
2007-12-16, 09:01:00,VALID,916.811,VALID,0,VALID,87.5233,VALID,307.727,VALID,22.4096,VALID,116,VALID,0.28016,
2007-12-16, 09:02:00,VALID,916.822,VALID,0,VALID,88.0039,VALID,311.7,VALID,22.5879,VALID,117,VALID,0.0350654,
2007-12-16, 09:03:00,VALID,916.852,VALID,0,VALID,86.7667,VALID,317.168,VALID,22.7828,VALID,161,VALID,0.332532,
2007-12-16, 09:04:00,VALID,916.851,VALID,0,VALID,85.9096,VALID,325.506,VALID,22.9614,VALID,214,VALID,0.418324,
2007-12-16, 09:05:00,VALID,916.856,VALID,0,VALID,84.8516,VALID,334.964,VALID,23.1403,VALID,198,VALID,0.453125,
2007-12-16, 09:06:00,VALID,916.868,VALID,0,VALID,83.9997,VALID,349.058,VALID,23.306,VALID,206,VALID,0.366122,
2007-12-16, 09:07:00,VALID,916.883,VALID,0,VALID,83.1286,VALID,361.607,VALID,23.4489,VALID,225,VALID,0.309961,
2007-12-16, 09:08:00,VALID,916.895,VALID,0,VALID,81.3217,VALID,383.937,VALID,23.5593,VALID,218,VALID,0.270211,
2007-12-16, 09:09:00,VALID,916.917,VALID,0,VALID,81.1907,VALID,390.678,VALID,23.738,VALID,193,VALID,0.29082,
2007-12-16, 09:10:00,VALID,916.931,VALID,0,VALID,79.8682,VALID,384.191,VALID,23.8517,VALID,191,VALID,0.297991,
2007-12-16, 09:11:00,VALID,916.937,VALID,0,VALID,79.1129,VALID,382.425,VALID,23.9199,VALID,191,VALID,0.15734,
2007-12-16, 09:12:00,VALID,916.971,VALID,0,VALID,78.7759,VALID,422.279,VALID,24.0416,VALID,191,VALID,0.0697266,
2007-12-16, 09:13:00,VALID,917,VALID,0,VALID,77.4954,VALID,455.001,VALID,24.2268,VALID,191,VALID,0.171875,
2007-12-16, 09:14:00,VALID,917.005,VALID,0,VALID,76.1361,VALID,509.289,VALID,24.5228,VALID,191,VALID,0,
2007-12-16, 09:15:00,VALID,917.013,VALID,0,VALID,75.4494,VALID,552.845,VALID,24.8936,VALID,191,VALID,0.0195313,
2007-12-16, 09:16:00,VALID,917.029,VALID,0,VALID,75.4087,VALID,552.268,VALID,25.2576,VALID,191,VALID,0,
2007-12-16, 09:17:00,VALID,917.033,VALID,0,VALID,74.3723,VALID,583.988,VALID,25.6769,VALID,191,VALID,0,
2007-12-16, 09:18:00,VALID,917.045,VALID,0,VALID,73.0651,VALID,632.672,VALID,26.2108,VALID,191,VALID,0,
2007-12-16, 09:19:00,VALID,917.054,VALID,0,VALID,71.2874,VALID,734.013,VALID,26.6981,VALID,191,VALID,0,
2007-12-16, 09:20:00,VALID,917.065,VALID,0,VALID,69.5873,VALID,796.469,VALID,27.1644,VALID,191,VALID,0,
2007-12-16, 09:21:00,VALID,917.055,VALID,0,VALID,66.7796,VALID,729.802,VALID,27.6655,VALID,191,VALID,0,
2007-12-16, 09:22:00,VALID,917.068,VALID,0,VALID,65.6669,VALID,775.328,VALID,28.1151,VALID,192,VALID,0.167969,
2007-12-16, 09:23:00,VALID,917.072,VALID,0,VALID,66.9563,VALID,522.008,VALID,28.2456,VALID,256,VALID,0.670922,
2007-12-16, 09:24:00,VALID,917.083,VALID,0,VALID,68.4823,VALID,649.262,VALID,27.8777,VALID,247,VALID,0.659375,
2007-12-16, 09:25:00,VALID,917.106,VALID,0,VALID,69.9828,VALID,729.242,VALID,27.5495,VALID,281,VALID,0.577778,
2007-12-16, 09:26:00,VALID,917.118,VALID,0,VALID,70.7012,VALID,780.677,VALID,27.2239,VALID,334,VALID,0.259084,
2007-12-16, 09:27:00,VALID,917.128,VALID,0,VALID,67.2564,VALID,766.668,VALID,27.13,VALID,313,VALID,0.287791,
2007-12-16, 09:28:00,VALID,917.149,VALID,0,VALID,68.9947,VALID,751.487,VALID,27.101,VALID,291,VALID,0.490945,
2007-12-16, 09:29:00,VALID,917.164,VALID,0,VALID,69.9294,VALID,711.191,VALID,27.1173,VALID,287,VALID,0.361111,
2007-12-16, 09:30:00,VALID,917.184,VALID,0,VALID,70.176,VALID,670.03,VALID,27.1401,VALID,329,VALID,0.451882,
2007-12-16, 09:31:00,VALID,917.183,VALID,0,VALID,66.3078,VALID,702.752,VALID,27.1014,VALID,322,VALID,0.806504,
2007-12-16, 09:32:00,VALID,917.19,VALID,0,VALID,62.9355,VALID,689.031,VALID,26.7408,VALID,310,VALID,0.866655,
2007-12-16, 09:33:00,VALID,917.204,VALID,0,VALID,66.5291,VALID,700.306,VALID,26.4585,VALID,309,VALID,0.636433,
2007-12-16, 09:34:00,VALID,917.216,VALID,0,VALID,66.1883,VALID,733.674,VALID,26.2927,VALID,315,VALID,0.800876,
2007-12-16, 09:35:00,VALID,917.216,VALID,0,VALID,64.1372,VALID,744.677,VALID,26.2378,VALID,264,VALID,0.77782,
2007-12-16, 09:36:00,VALID,917.24,VALID,0,VALID,61.3219,VALID,703.21,VALID,26.2082,VALID,293,VALID,0.412997,
2007-12-16, 09:37:00,VALID,917.251,VALID,0,VALID,60.3961,VALID,655.579,VALID,26.2475,VALID,350,VALID,0.617932,
2007-12-16, 09:38:00,VALID,917.24,VALID,0,VALID,63.2725,VALID,644.609,VALID,26.0862,VALID,40,VALID,1.00098,
2007-12-16, 09:39:00,VALID,917.256,VALID,0,VALID,63.6425,VALID,673.392,VALID,26.0475,VALID,4,VALID,1.25055,
2007-12-16, 09:40:00,VALID,917.271,VALID,0,VALID,64.2033,VALID,692.512,VALID,26.2488,VALID,299,VALID,0.896205,
2007-12-16, 09:41:00,VALID,917.274,VALID,0,VALID,65.2791,VALID,736.9,VALID,26.3268,VALID,280,VALID,0.987995,
2007-12-16, 09:42:00,VALID,917.271,VALID,0,VALID,64.7272,VALID,739.906,VALID,26.2761,VALID,253,VALID,0.819404,
2007-12-16, 09:43:00,VALID,917.275,VALID,0,VALID,63.7099,VALID,733.062,VALID,26.267,VALID,258,VALID,0.864211,
2007-12-16, 09:44:00,VALID,917.281,VALID,0,VALID,66.8889,VALID,729.038,VALID,26.3064,VALID,303,VALID,0.661272,
2007-12-16, 09:45:00,VALID,917.269,VALID,0,VALID,67.306,VALID,723.197,VALID,26.4462,VALID,298,VALID,0.332403,
2007-12-16, 09:46:00,VALID,917.278,VALID,0,VALID,65.8539,VALID,721.787,VALID,26.6933,VALID,272,VALID,0.123633,
2007-12-16, 09:47:00,VALID,917.284,VALID,0,VALID,64.4691,VALID,719.529,VALID,26.9831,VALID,279,VALID,0.210029,
2007-12-16, 09:48:00,VALID,917.299,VALID,0,VALID,64.0952,VALID,721.991,VALID,27.1324,VALID,294,VALID,0.456395,
2007-12-16, 09:49:00,VALID,917.309,VALID,0,VALID,64.2771,VALID,721.804,VALID,27.1873,VALID,292,VALID,0.729992,
2007-12-16, 09:50:00,VALID,917.309,VALID,0,VALID,64.0901,VALID,722.127,VALID,27.0543,VALID,324,VALID,0.593928,
2007-12-16, 09:51:00,VALID,917.322,VALID,0,VALID,64.6636,VALID,722.314,VALID,27.1077,VALID,336,VALID,0.0369141,
2007-12-16, 09:52:00,VALID,917.336,VALID,0,VALID,63.4404,VALID,717.865,VALID,27.2508,VALID,315,VALID,0.81715,
2007-12-16, 09:53:00,VALID,917.311,VALID,0,VALID,64.6802,VALID,717.916,VALID,27.111,VALID,303,VALID,0.108665,
2007-12-16, 09:54:00,VALID,917.306,VALID,0,VALID,65.0477,VALID,720.87,VALID,27.1634,VALID,233,VALID,0.422238,
2007-12-16, 09:55:00,VALID,917.313,VALID,0,VALID,65.2384,VALID,726.236,VALID,27.3285,VALID,311,VALID,0.63186,
2007-12-16, 09:56:00,VALID,917.29,VALID,0,VALID,64.6725,VALID,729.683,VALID,27.4203,VALID,283,VALID,0.652521,
2007-12-16, 09:57:00,VALID,917.299,VALID,0,VALID,64.5899,VALID,730.006,VALID,27.347,VALID,279,VALID,0.75918,
2007-12-16, 09:58:00,VALID,917.286,VALID,0,VALID,66.2417,VALID,731.925,VALID,27.2596,VALID,280,VALID,0.290396,
2007-12-16, 09:59:00,VALID,917.281,VALID,0,VALID,63.3399,VALID,733.725,VALID,27.3018,VALID,301,VALID,0.637649,
2007-12-16, 10:00:00,VALID,917.265,VALID,0,VALID,63.111,VALID,733.555,VALID,27.1135,VALID,280,VALID,0.992001,
2007-12-16, 10:01:00,VALID,917.291,VALID,0,VALID,63.9058,VALID,733.198,VALID,26.9864,VALID,354,VALID,0.404576,
2007-12-16, 10:02:00,VALID,917.301,VALID,0,VALID,64.478,VALID,735.355,VALID,27.1385,VALID,303,VALID,0.527439,
2007-12-16, 10:03:00,VALID,917.303,VALID,0,VALID,63.3081,VALID,738.021,VALID,27.1988,VALID,310,VALID,0.619792,
2007-12-16, 10:04:00,VALID,917.307,VALID,0,VALID,62.6723,VALID,739.566,VALID,27.1099,VALID,355,VALID,0.31994,
2007-12-16, 10:05:00,VALID,917.29,VALID,0,VALID,62.0479,VALID,740.891,VALID,27.1587,VALID,302,VALID,1.12447,
2007-12-16, 10:06:00,VALID,917.284,VALID,0,VALID,64.2059,VALID,743.302,VALID,26.9769,VALID,21,VALID,0.823583,
2007-12-16, 10:07:00,VALID,917.253,VALID,0,VALID,64.9714,VALID,747.021,VALID,27.0196,VALID,8,VALID,1.7792,
2007-12-16, 10:08:00,VALID,917.26,VALID,0,VALID,63.0551,VALID,677.773,VALID,27.0998,VALID,306,VALID,1.49673,
2007-12-16, 10:09:00,VALID,917.272,VALID,0,VALID,61.8826,VALID,752.03,VALID,27.1818,VALID,242,VALID,1.01699,
2007-12-16, 10:10:00,VALID,917.247,VALID,0,VALID,62.4879,VALID,752.879,VALID,27.1978,VALID,21,VALID,1.20885,
2007-12-16, 10:11:00,VALID,917.235,VALID,0,VALID,63.4543,VALID,754.696,VALID,27.0095,VALID,352,VALID,1.24455,
2007-12-16, 10:12:00,VALID,917.226,VALID,0,VALID,64.6395,VALID,758.992,VALID,27.1236,VALID,19,VALID,1.46019,
2007-12-16, 10:13:00,VALID,917.226,VALID,0,VALID,62.8681,VALID,654.305,VALID,27.1533,VALID,5,VALID,2.25171,
2007-12-16, 10:14:00,VALID,917.208,VALID,0,VALID,61.9805,VALID,762.694,VALID,26.9805,VALID,11,VALID,2.04552,
2007-12-16, 10:15:00,VALID,917.181,VALID,0,VALID,62.9406,VALID,764.647,VALID,26.8284,VALID,27,VALID,2.05705,
2007-12-16, 10:16:00,VALID,917.187,VALID,0,VALID,63.7989,VALID,766.277,VALID,26.8931,VALID,13,VALID,1.82122,
2007-12-16, 10:17:00,VALID,917.158,VALID,0,VALID,63.1377,VALID,769.979,VALID,26.9194,VALID,16,VALID,1.68576,
2007-12-16, 10:18:00,VALID,917.13,VALID,0,VALID,65.4101,VALID,773.137,VALID,26.8967,VALID,353,VALID,1.85883,
2007-12-16, 10:19:00,VALID,917.113,VALID,0,VALID,64.4475,VALID,656.462,VALID,27.206,VALID,315,VALID,0.989702,
2007-12-16, 10:20:00,VALID,917.097,VALID,0,VALID,64.4805,VALID,660.911,VALID,27.5248,VALID,24,VALID,2.06783,
2007-12-16, 10:21:00,VALID,917.078,VALID,0,VALID,62.8618,VALID,688.165,VALID,27.5504,VALID,16,VALID,2.37386,
2007-12-16, 10:22:00,VALID,917.058,VALID,0,VALID,61.1337,VALID,771.711,VALID,27.2024,VALID,21,VALID,2.20156,
2007-12-16, 10:23:00,VALID,917.071,VALID,0,VALID,59.6942,VALID,776.364,VALID,27.1279,VALID,353,VALID,1.64609,
2007-12-16, 10:24:00,VALID,917.057,VALID,0,VALID,63.5561,VALID,780.592,VALID,26.9783,VALID,31,VALID,2.44985,
2007-12-16, 10:25:00,VALID,917.081,VALID,0,VALID,64.6268,VALID,781.543,VALID,27.03,VALID,18,VALID,2.35174,
2007-12-16, 10:26:00,VALID,917.106,VALID,0,VALID,64.787,VALID,663.39,VALID,27.1666,VALID,33,VALID,1.32724,
2007-12-16, 10:27:00,VALID,917.099,VALID,0,VALID,63.7112,VALID,707.286,VALID,27.365,VALID,31,VALID,1.75596,
2007-12-16, 10:28:00,VALID,917.132,VALID,0,VALID,62.3951,VALID,655.358,VALID,27.5009,VALID,6,VALID,1.4908,
2007-12-16, 10:29:00,VALID,917.122,VALID,0,VALID,60.7535,VALID,555.137,VALID,27.6997,VALID,24,VALID,1.64882,
2007-12-16, 10:30:00,VALID,917.108,VALID,0,VALID,62.2514,VALID,761.403,VALID,27.6617,VALID,23,VALID,2.30506,
2007-12-16, 10:31:00,VALID,917.084,VALID,0,VALID,60.9849,VALID,698.201,VALID,27.5602,VALID,11,VALID,2.32013,
2007-12-16, 10:32:00,VALID,917.098,VALID,0,VALID,60.4534,VALID,797.301,VALID,27.4825,VALID,308,VALID,1.20087,
2007-12-16, 10:33:00,VALID,917.068,VALID,0,VALID,58.1708,VALID,677.909,VALID,27.5544,VALID,352,VALID,1.55451,
2007-12-16, 10:34:00,VALID,917.053,VALID,0,VALID,61.2036,VALID,519.121,VALID,27.3104,VALID,30,VALID,2.05814,
2007-12-16, 10:35:00,VALID,917.047,VALID,0,VALID,62.3315,VALID,685.533,VALID,27.3085,VALID,21,VALID,2.17504,